Regional Weather Roundup
Issued by NWS Charleston, WV

Home | Current Version | Previous Version | Graphics & Text | Print | Product List | Glossary On
Versions: 1 2 3 4 5 6 7 8 9 10 11 12 13 14 15 16 17 18 19 20 21 22 23 24 25 26 27 28 29 30 31 32 33 34 35 36 37 38 39 40 41 42 43 44 45 46 47 48
000
ASUS41 KRLX 032310
RWRRLX
West Virginia Regional Weather Roundup
National Weather Service Charleston WV
600 PM EST TUE MAR 03 2015

Note: "fair" indicates few or no clouds below 12,000 feet with no
significant weather and/or obstructions to visibility.

WVZ003-040000-
Northern Panhandle of West Virginia

CITY           SKY/WX    TMP DP  RH WIND       PRES   REMARKS
WHEELING       LGT RAIN  46  44  93 SW13G25   29.72S FOG
$$

WVZ009-040000-
Northwest West Virginia

CITY           SKY/WX    TMP DP  RH WIND       PRES   REMARKS
PARKERSBURG    LGT RAIN  49  46  90 S9        29.79F FOG
$$

WVZ006-040000-
Western West Virginia

CITY           SKY/WX    TMP DP  RH WIND       PRES   REMARKS
HUNTINGTON     CLOUDY    62  54  74 SW14G24   29.80F
$$

WVZ015-040000-
West Central West Virginia

CITY           SKY/WX    TMP DP  RH WIND       PRES   REMARKS
CHARLESTON     CLOUDY    62  51  67 SW14      29.83S
$$

WVZ022-031-040000-
North Central West Virginia

CITY           SKY/WX    TMP DP  RH WIND       PRES   REMARKS
CLARKSBURG     LGT RAIN  52  49  89 S17G23    29.78F
MORGANTOWN     LGT RAIN  53  47  79 SW10G20   29.76F
$$

WVZ025-035-042-045-040000-
Southern West Virginia

CITY           SKY/WX    TMP DP  RH WIND       PRES   REMARKS
BECKLEY        CLOUDY    47  42  83 S8        29.94F
LOGAN          CLOUDY    57  50  77 S7G14     29.87S
BLUEFIELD      LGT RAIN  54  48  80 SW12      29.98F
LEWISBURG      CLOUDY    36  34  93 N7        30.00S
$$

WVZ047-040000-
Northern Mountains of West Virginia

CITY           SKY/WX    TMP DP  RH WIND       PRES   REMARKS
ELKINS         CLOUDY    43  42  97 SE6       29.86F
$$

WVZ052-040000-
Eastern Panhandle of West Virginia

CITY           SKY/WX    TMP DP  RH WIND       PRES   REMARKS
MARTINSBURG    CLOUDY    35  20  54 S9        29.96F
PETERSBURG     DRIZZLE   42  33  70 S9G18     29.90F
$$



USA.gov is the U.S. government's official web portal to all federal, state and local government web resources and services.